Meteo pe oră la Dabrowno

Astăzi, 14 Aprilie, Miercuri

Timp Temperatura Precipitaţii Vânt Presiune Umiditate
00:00 +3°C° 0 mm 2 m/s 761 mmHg 73%
01:00 +3°C° 0 mm 2 m/s 761 mmHg 75%
02:00 +3°C° 0 mm 2 m/s 761 mmHg 76%
03:00 +1°C° 0 mm 3 m/s 761 mmHg 77%
04:00 +1°C° 0 mm 3 m/s 761 mmHg 78%
05:00 +1°C° 0 mm 3 m/s 761 mmHg 78%
06:00 0°C° 0 mm 4 m/s 761 mmHg 77%
07:00 +1°C° 0 mm 4 m/s 761 mmHg 76%
08:00 +3°C° 0 mm 4 m/s 761 mmHg 72%
09:00 +4°C° 0 mm 4 m/s 761 mmHg 67%
10:00 +5°C° 0 mm 5 m/s 761 mmHg 63%
11:00 +5°C° 0.2 mm 5 m/s 761 mmHg 58%
12:00 +6°C° 0.2 mm 5 m/s 761 mmHg 53%
13:00 +7°C° 0.2 mm 5 m/s 761 mmHg 48%
14:00 +7°C° 0 mm 5 m/s 760 mmHg 45%
15:00 +7°C° 0 mm 5 m/s 760 mmHg 42%
16:00 +7°C° 0 mm 5 m/s 760 mmHg 40%
17:00 +6°C° 0 mm 4 m/s 760 mmHg 45%
18:00 +5°C° 0 mm 3 m/s 760 mmHg 50%
19:00 +3°C° 0 mm 3 m/s 760 mmHg 56%
20:00 +3°C° 0 mm 3 m/s 761 mmHg 59%
21:00 +2°C° 0 mm 3 m/s 761 mmHg 63%
22:00 +2°C° 0 mm 3 m/s 761 mmHg 66%
23:00 +1°C° 0 mm 3 m/s 761 mmHg 70%

Mâine, 15 Aprilie, Joi

Timp Temperatura Precipitaţii Vânt Presiune Umiditate
00:00 +1°C° 0 mm 3 m/s 761 mmHg 74%
01:00 +2°C° 0 mm 2 m/s 761 mmHg 77%
02:00 +1°C° 0 mm 3 m/s 761 mmHg 78%
03:00 +1°C° 0 mm 3 m/s 761 mmHg 78%
04:00 +1°C° 0 mm 3 m/s 761 mmHg 79%
05:00 +1°C° 0 mm 3 m/s 761 mmHg 78%
06:00 +1°C° 0 mm 3 m/s 761 mmHg 77%
07:00 +1°C° 0 mm 4 m/s 761 mmHg 76%
08:00 +1°C° 0.1 mm 4 m/s 761 mmHg 78%
09:00 +1°C° 0.1 mm 5 m/s 761 mmHg 79%
10:00 +1°C° 0.1 mm 5 m/s 761 mmHg 81%
11:00 +2°C° 0.2 mm 5 m/s 761 mmHg 79%
12:00 +2°C° 0.2 mm 6 m/s 761 mmHg 76%
13:00 +2°C° 0.2 mm 6 m/s 760 mmHg 74%
14:00 +2°C° 0.3 mm 6 m/s 760 mmHg 79%
15:00 +2°C° 0.3 mm 6 m/s 760 mmHg 85%
16:00 +2°C° 0.3 mm 5 m/s 760 mmHg 90%
17:00 +1°C° 0.6 mm 5 m/s 759 mmHg 92%
18:00 +1°C° 0.6 mm 5 m/s 759 mmHg 95%
19:00 +1°C° 0.6 mm 5 m/s 759 mmHg 97%
20:00 +1°C° 0.4 mm 5 m/s 759 mmHg 97%
21:00 +1°C° 0.4 mm 4 m/s 759 mmHg 97%
22:00 +1°C° 0.4 mm 4 m/s 759 mmHg 97%
23:00 +1°C° 0.3 mm 4 m/s 758 mmHg 96%

Poimâine, 16 Aprilie, Vineri

Timp Temperatura Precipitaţii Vânt Presiune Umiditate
00:00 +1°C° 0.3 mm 4 m/s 758 mmHg 96%
01:00 +2°C° 0.3 mm 3 m/s 758 mmHg 95%
02:00 +2°C° 0.2 mm 3 m/s 758 mmHg 94%
03:00 +2°C° 0.2 mm 3 m/s 758 mmHg 94%
04:00 +2°C° 0.2 mm 3 m/s 758 mmHg 93%
05:00 +2°C° 0.1 mm 3 m/s 758 mmHg 92%
06:00 +2°C° 0.1 mm 3 m/s 758 mmHg 91%
07:00 +2°C° 0.1 mm 3 m/s 759 mmHg 90%
08:00 +4°C° 0 mm 3 m/s 759 mmHg 84%
09:00 +5°C° 0 mm 3 m/s 759 mmHg 77%
10:00 +7°C° 0 mm 3 m/s 759 mmHg 70%
11:00 +8°C° 0 mm 3 m/s 759 mmHg 64%
12:00 +9°C° 0 mm 3 m/s 759 mmHg 59%
13:00 +10°C° 0 mm 3 m/s 759 mmHg 53%
14:00 +10°C° 0 mm 4 m/s 758 mmHg 55%
15:00 +10°C° 0 mm 4 m/s 758 mmHg 57%
16:00 +10°C° 0 mm 4 m/s 758 mmHg 58%
17:00 +7°C° 0 mm 4 m/s 759 mmHg 68%
18:00 +7°C° 0 mm 3 m/s 759 mmHg 78%
19:00 +5°C° 0 mm 3 m/s 759 mmHg 88%
20:00 +6°C° 0 mm 2 m/s 759 mmHg 88%
21:00 +6°C° 0 mm 2 m/s 759 mmHg 89%
22:00 +7°C° 0 mm 1 m/s 759 mmHg 90%
23:00 +5°C° 0.1 mm 2 m/s 759 mmHg 90%

17 Aprilie, Sâmbătă

Timp Temperatura Precipitaţii Vânt Presiune Umiditate
00:00 +5°C° 0.1 mm 2 m/s 759 mmHg 90%
01:00 +5°C° 0.1 mm 2 m/s 759 mmHg 91%
02:00 +5°C° 0 mm 2 m/s 759 mmHg 91%
03:00 +5°C° 0 mm 2 m/s 759 mmHg 91%
04:00 +5°C° 0 mm 2 m/s 759 mmHg 92%
05:00 +5°C° 0 mm 2 m/s 759 mmHg 90%
06:00 +6°C° 0 mm 2 m/s 759 mmHg 89%
07:00 +6°C° 0 mm 2 m/s 759 mmHg 88%
08:00 +7°C° 0 mm 2 m/s 759 mmHg 85%
09:00 +8°C° 0 mm 3 m/s 759 mmHg 81%
10:00 +9°C° 0 mm 3 m/s 759 mmHg 78%
11:00 +9°C° 0 mm 3 m/s 759 mmHg 76%
12:00 +10°C° 0 mm 3 m/s 759 mmHg 75%
13:00 +10°C° 0 mm 3 m/s 758 mmHg 73%
14:00 +10°C° 0.1 mm 3 m/s 758 mmHg 76%
15:00 +10°C° 0.1 mm 3 m/s 758 mmHg 80%
16:00 +9°C° 0.1 mm 3 m/s 758 mmHg 83%
17:00 +9°C° 0.2 mm 3 m/s 758 mmHg 87%
18:00 +8°C° 0.2 mm 2 m/s 758 mmHg 91%
19:00 +7°C° 0.2 mm 2 m/s 758 mmHg 95%
20:00 +7°C° 0 mm 2 m/s 758 mmHg 95%
21:00 +7°C° 0 mm 2 m/s 758 mmHg 95%
22:00 +7°C° 0 mm 2 m/s 758 mmHg 96%
23:00 +7°C° 0 mm 2 m/s 758 mmHg 96%

18 Aprilie, Duminică

Timp Temperatura Precipitaţii Vânt Presiune Umiditate
00:00 +7°C° 0 mm 2 m/s 758 mmHg 96%
01:00 +7°C° 0 mm 2 m/s 758 mmHg 96%
02:00 +7°C° 0.1 mm 2 m/s 758 mmHg 96%
03:00 +6°C° 0.1 mm 2 m/s 758 mmHg 97%
04:00 +6°C° 0.1 mm 2 m/s 757 mmHg 97%
05:00 +6°C° 0 mm 2 m/s 758 mmHg 95%
06:00 +7°C° 0 mm 2 m/s 758 mmHg 93%
07:00 +7°C° 0 mm 2 m/s 758 mmHg 91%
08:00 +8°C° 0 mm 3 m/s 758 mmHg 86%
09:00 +9°C° 0 mm 3 m/s 758 mmHg 82%
10:00 +10°C° 0 mm 3 m/s 758 mmHg 77%
11:00 +11°C° 0.2 mm 3 m/s 758 mmHg 73%
12:00 +11°C° 0.2 mm 3 m/s 757 mmHg 69%
13:00 +12°C° 0.2 mm 3 m/s 757 mmHg 65%
14:00 +12°C° 0.1 mm 3 m/s 757 mmHg 67%
15:00 +11°C° 0.1 mm 3 m/s 757 mmHg 69%
16:00 +11°C° 0.1 mm 3 m/s 757 mmHg 72%
17:00 +10°C° 0 mm 3 m/s 757 mmHg 74%
18:00 +9°C° 0 mm 2 m/s 758 mmHg 76%
19:00 +8°C° 0 mm 2 m/s 758 mmHg 79%
20:00 +8°C° 0 mm 2 m/s 758 mmHg 80%
21:00 +8°C° 0 mm 2 m/s 758 mmHg 82%
22:00 +7°C° 0 mm 2 m/s 758 mmHg 83%
23:00 +7°C° 0 mm 2 m/s 758 mmHg 83%

19 Aprilie, Luni

Timp Temperatura Precipitaţii Vânt Presiune Umiditate
00:00 +7°C° 0 mm 2 m/s 758 mmHg 83%
01:00 +7°C° 0 mm 2 m/s 758 mmHg 83%
02:00 +8°C° 0 mm 2 m/s 758 mmHg 83%
03:00 +8°C° 0 mm 2 m/s 758 mmHg 83%
04:00 +8°C° 0 mm 2 m/s 757 mmHg 83%
05:00 +8°C° 0 mm 2 m/s 757 mmHg 83%
06:00 +8°C° 0 mm 2 m/s 757 mmHg 83%
07:00 +9°C° 0 mm 2 m/s 757 mmHg 83%
08:00 +10°C° 0.2 mm 2 m/s 757 mmHg 81%
09:00 +11°C° 0.2 mm 3 m/s 757 mmHg 79%
10:00 +12°C° 0.2 mm 3 m/s 757 mmHg 76%
11:00 +12°C° 0.5 mm 3 m/s 756 mmHg 76%
12:00 +12°C° 0.5 mm 3 m/s 756 mmHg 76%
13:00 +13°C° 0.5 mm 3 m/s 756 mmHg 75%
14:00 +12°C° 0.5 mm 3 m/s 756 mmHg 78%
15:00 +12°C° 0.5 mm 3 m/s 756 mmHg 80%
16:00 +11°C° 0.5 mm 3 m/s 755 mmHg 82%
17:00 +10°C° 0.1 mm 2 m/s 755 mmHg 85%
18:00 +10°C° 0.1 mm 2 m/s 755 mmHg 88%
19:00 +10°C° 0.1 mm 1 m/s 755 mmHg 90%
20:00 +9°C° 0.1 mm 2 m/s 755 mmHg 91%
21:00 +9°C° 0.1 mm 2 m/s 755 mmHg 92%
22:00 +9°C° 0.1 mm 2 m/s 755 mmHg 93%
23:00 +9°C° 0.2 mm 2 m/s 755 mmHg 94%
Arată mai mult

Formular de consimțământ

Meteoprog și furnizorii noștri de servicii pot stoca și accesa date personale, precum cookies, identificatori de dispozitiv sau alte tehnologii similare pe dispozitivul dumneavoastră și procesa astfel de date pentru a personaliza conținutul și reclamele, dar și pentru a oferi caracteristici de social media și pentru a analiza traficul.

  • Stocarea și/sau accesarea informațiilor pe dispozitivul dumneavoastră

    Cookies, identificatori de dispozitiv sau alte informații pot fi stocate sau accesate pe dispozitiv în scopurile indicate mai sus.

  • Reclame și conținut personalizat, evaluarea reclamelor și a conținutului, informații despre audiențe și dezvoltarea produselor

    Reclamele și conținutul pot fi personalizate pe baza unui profil. Pot fi adăugate date suplimentare pentru a personaliza mai bine reclamele și conținutul. Performanța reclamelor și conținutului poate fi măsurată. Pot fi obținute informații despre utilizatorii care au văzut reclamele și conținutul. Aceste date pot fi utilizate pentru a dezvolta sau îmbunătăți experiența utilizatorilor, sistemele și software-ul.

Dând clic pe ‘Sunt de acord’, permiteți utilizarea cookie-urilor menționate, a identificatorilor de dispozitiv, balizelor web sau altor tehnologii similare. Setările pot fi modificate din browser-ul dispozitivului dumneavoastră.

În anumite scopuri, interesele legitime pot prima asupra consimțământului. Puteți citi mai multe informații în acest sens în Politica privind Confidențialitatea Datelor și Cookie.